| time (UTC) | temp F | wind direction | speed MPH | gust MPH | rain 1hr in | rain 24hr in | rain mn in | humidity % | barometer mb |
| 20260503004552 | 69 | 170 | 0.0 | 3.0 | 0.00 | 1.02 | 0.63 | 48 | 1014.1 |
| 20260503003100 | 69 | 152 | 0.0 | 6.0 | 0.00 | 1.02 | 0.63 | 46 | 1013.9 |
| 20260503001556 | 70 | 190 | 1.0 | 4.0 | 0.00 | 1.02 | 0.63 | 45 | 1013.6 |
| 20260503000050 | 71 | 117 | 1.0 | 4.0 | 0.00 | 1.02 | 0.63 | 44 | 1013.5 |
| 20260502234554 | 72 | 166 | 1.0 | 4.0 | 0.00 | 1.23 | 0.63 | 45 | 1013.2 |
| 20260502233050 | 72 | 179 | 1.0 | 6.0 | 0.00 | 1.23 | 0.63 | 43 | 1013.0 |
| 20260502231553 | 73 | 152 | 1.0 | 9.0 | 0.00 | 1.23 | 0.63 | 41 | 1012.9 |
| 20260502230048 | 75 | 158 | 1.0 | 5.0 | 0.00 | 1.23 | 0.63 | 40 | 1012.7 |
| 20260502224549 | 75 | 150 | 2.0 | 5.0 | 0.00 | 1.23 | 0.63 | 41 | 1012.8 |
| 20260502223047 | 75 | 110 | 1.0 | 6.0 | 0.00 | 1.23 | 0.63 | 40 | 1012.6 |
| 20260502221547 | 76 | 162 | 1.0 | 5.0 | 0.00 | 1.23 | 0.63 | 39 | 1012.4 |
| 20260502220105 | 75 | 169 | 2.0 | 6.0 | 0.00 | 1.23 | 0.63 | 40 | 1012.6 |
| 20260502214544 | 76 | 233 | 1.0 | 5.0 | 0.00 | 1.31 | 0.63 | 40 | 1012.6 |
| 20260502213042 | 76 | 195 | 1.0 | 6.0 | 0.00 | 1.31 | 0.63 | 42 | 1012.6 |
| 20260502211543 | 76 | 139 | 2.0 | 5.0 | 0.00 | 1.31 | 0.63 | 42 | 1012.5 |
| 20260502210039 | 76 | 149 | 2.0 | 8.0 | 0.00 | 1.31 | 0.63 | 43 | 1012.6 |
| 20260502204537 | 76 | 170 | 2.0 | 7.0 | 0.00 | 1.95 | 0.63 | 46 | 1012.6 |
| 20260502203043 | 76 | 172 | 1.0 | 11.0 | 0.00 | 1.95 | 0.63 | 48 | 1012.5 |
| 20260502201539 | 76 | 264 | 1.0 | 5.0 | 0.00 | 1.95 | 0.63 | 48 | 1012.7 |
| 20260502200032 | 76 | 241 | 2.0 | 7.0 | 0.00 | 1.95 | 0.63 | 50 | 1013.0 |
| 20260502194539 | 75 | 150 | 2.0 | 13.0 | 0.00 | 2.44 | 0.63 | 52 | 1013.0 |
| 20260502193031 | 75 | 179 | 2.0 | 8.0 | 0.00 | 2.44 | 0.63 | 54 | 1013.0 |
| 20260502191537 | 75 | 181 | 2.0 | 7.0 | 0.00 | 2.44 | 0.63 | 57 | 1013.1 |
| 20260502190026 | 75 | 117 | 2.0 | 9.0 | 0.00 | 2.44 | 0.63 | 58 | 1013.1 |
| 20260502184534 | 74 | 144 | 2.0 | 7.0 | 0.00 | 2.47 | 0.63 | 59 | 1013.1 |
| 20260502183024 | 74 | 329 | 2.0 | 9.0 | 0.00 | 2.47 | 0.63 | 58 | 1013.2 |
| 20260502181526 | 75 | 156 | 1.0 | 9.0 | 0.00 | 2.47 | 0.63 | 59 | 1013.2 |
| 20260502163007 | 70 | 255 | 1.0 | 5.0 | 0.00 | 2.47 | 0.63 | 69 | 1013.9 |
| 20260502161504 | 69 | 98 | 1.0 | 8.0 | 0.00 | 2.47 | 0.63 | 73 | 1013.9 |
| 20260502160107 | 68 | 135 | 2.0 | 5.0 | 0.00 | 2.47 | 0.63 | 74 | 1013.9 |
| 20260502151601 | 66 | 137 | 2.0 | 6.0 | 0.00 | 2.47 | 0.63 | 74 | 1013.8 |
| 20260502123023 | 57 | 238 | 2.0 | 6.0 | 0.00 | 2.47 | 0.63 | 96 | 1011.9 |
| 20260502121523 | 56 | 134 | 1.0 | 6.0 | 0.00 | 2.47 | 0.63 | 97 | 1012.0 |
| 20260502114517 | 56 | 174 | 1.0 | 7.0 | 0.00 | 2.47 | 0.63 | 97 | 1011.4 |
| 20260502113015 | 56 | 129 | 1.0 | 6.0 | 0.00 | 2.47 | 0.63 | 98 | 1011.1 |
| 20260502111513 | 56 | 143 | 1.0 | 6.0 | 0.00 | 2.47 | 0.63 | 98 | 1010.9 |
| 20260502110011 | 56 | 161 | 1.0 | 7.0 | 0.00 | 2.47 | 0.63 | 98 | 1010.5 |
| 20260502104510 | 56 | 191 | 1.0 | 4.0 | 0.00 | 2.47 | 0.63 | 98 | 1010.5 |
| 20260502103009 | 56 | 174 | 1.0 | 7.0 | 0.00 | 2.47 | 0.63 | 98 | 1010.3 |
| 20260502101508 | 56 | 177 | 1.0 | 5.0 | 0.01 | 2.47 | 0.63 | 98 | 1010.2 |
| 20260502091504 | 56 | 179 | 1.0 | 4.0 | 0.00 | 2.46 | 0.62 | 98 | 1009.8 |
| 20260502070059 | 56 | 188 | 0.0 | 1.0 | 0.14 | 2.24 | 0.40 | 89 | 1009.2 |
| 20260502064554 | 56 | 129 | 0.0 | 4.0 | 0.09 | 2.15 | 0.31 | 89 | 1009.8 |
| 20260502063052 | 57 | 138 | 0.0 | 4.0 | 0.25 | 2.10 | 0.26 | 89 | 1009.8 |
| 20260502061550 | 57 | 165 | 0.0 | 3.0 | 0.25 | 2.10 | 0.26 | 89 | 1009.6 |
| 20260502060054 | 57 | 160 | 0.0 | 3.0 | 0.26 | 2.10 | 0.26 | 89 | 1009.2 |
| 20260502054553 | 58 | 197 | 0.0 | 2.0 | 0.24 | 2.06 | 0.22 | 89 | 1009.9 |
| 20260502053045 | 58 | 121 | 0.0 | 3.0 | 0.03 | 1.85 | 0.01 | 89 | 1009.4 |
| 20260502051544 | 58 | 234 | 0.0 | 1.0 | 0.04 | 1.85 | 0.01 | 89 | 1009.7 |
| 20260502050046 | 58 | 276 | 0.0 | 3.0 | 0.04 | 1.84 | 0.00 | 89 | 1009.1 |
| 20260502044547 | 58 | 187 | 0.0 | 3.0 | 0.03 | 1.82 | 1.82 | 89 | 1009.6 |
| 20260502043047 | 58 | 181 | 0.0 | 3.0 | 0.06 | 1.82 | 1.82 | 89 | 1008.8 |
| 20260502041546 | 58 | 293 | 0.0 | 1.0 | 0.07 | 1.81 | 1.81 | 89 | 1008.7 |
| 20260502040038 | 58 | 269 | 0.0 | 3.0 | 0.06 | 1.80 | 1.80 | 89 | 1008.7 |
| 20260502034539 | 57 | 345 | 0.0 | 2.0 | 0.06 | 1.79 | 1.79 | 89 | 1009.4 |
| 20260502033040 | 57 | 152 | 0.0 | 2.0 | 0.03 | 1.76 | 1.76 | 89 | 1009.7 |
| 20260502031536 | 57 | 42 | 0.0 | 2.0 | 0.01 | 1.74 | 1.74 | 89 | 1009.3 |
| 20260502030039 | 57 | 153 | 0.0 | 1.0 | 0.01 | 1.74 | 1.74 | 89 | 1009.0 |
| 20260502024540 | 57 | 201 | 0.0 | 1.0 | 0.00 | 1.73 | 1.73 | 89 | 1008.9 |
| 20260502023035 | 57 | 240 | 0.0 | 1.0 | 0.01 | 1.73 | 1.73 | 89 | 1008.8 |
| 20260502021533 | 57 | 222 | 0.0 | 2.0 | 0.05 | 1.73 | 1.73 | 89 | 1008.5 |
| 20260502020032 | 58 | 134 | 0.0 | 4.0 | 0.08 | 1.73 | 1.73 | 89 | 1008.1 |
| 20260502014548 | 58 | 157 | 0.0 | 4.0 | 0.08 | 1.73 | 1.73 | 89 | 1008.1 |
| 20260502013030 | 58 | 273 | 0.0 | 3.0 | 0.07 | 1.72 | 1.72 | 89 | 1009.0 |
| 20260502011533 | 58 | 162 | 0.0 | 3.0 | 0.06 | 1.68 | 1.68 | 89 | 1008.6 |
| 20260502010031 | 58 | 127 | 0.0 | 2.0 | 0.17 | 1.65 | 1.65 | 89 | 1009.1 |